Regional Weather Roundup
Issued by NWS

Home | Current Version | Previous Version | Graphics & Text | Print | Product List | Glossary On
Versions: 1 2 3 4 5 6 7 8 9 10 11 12 13 14 15 16 17 18 19 20 21 22 23 24 25 26 27 28 29 30 31 32 33 34 35 36 37 38 39 40 41 42 43 44 45 46 47 48 49 50
000
ASUS43 KFSD 242102
RWRSD

WEATHER ROUNDUP FOR SOUTH DAKOTA
NATIONAL WEATHER SERVICE SIOUX FALLS SD
300 PM CST TUE JAN 24 2017

NOTE: "FAIR" INDICATES FEW OR NO CLOUDS BELOW 12,000 FEET WITH NO
SIGNIFICANT WEATHER AND/OR OBSTRUCTIONS TO VISIBILITY.


SDZ001>005-009-010-012>017-242200-
NORTHWEST AND NORTH CENTRAL SOUTH DAKOTA

CITY           SKY/WX    TMP DP  RH WIND       PRES   REMARKS
BUFFALO          N/A     20  14  77 NW20      29.76S WCI   4
FAITH            N/A     22  20  92 N15       29.82R WCI   9
MOBRIDGE       LGT SNOW  24  18  77 N15       29.81R WCI  11
$$

SDZ012>016-024>037-041>051-057-063-072>074-242200-
SOUTHWEST AND SOUTH CENTRAL SOUTH DAKOTA

CITY           SKY/WX    TMP DP  RH WIND       PRES   REMARKS
RAPID CTY ARPT LGT SNOW  20  17  88 N20G26    29.77S VSB 3/4 WCI   4
PIERRE         LGT SNOW  26  23  88 N22       29.75F VSB 3/4 WCI  12
CUSTER         LGT SNOW  15  10  80 N6        29.62S VSB 1   WCI   6
PINE RIDGE     SNOW      22  20  92 N13       29.72R VSB 1/2 WCI  10
SPEARFISH      LGT SNOW  21  19  93 NW6       29.78S VSB 1   WCI  14
WINNER         HVY SNOW  31  29  92 NE16      29.65S VSB 1/4 WCI  20
$$

SDZ004>011-016>023-039-040-242200-
NORTHEAST SOUTH DAKOTA

CITY           SKY/WX    TMP DP  RH WIND       PRES   REMARKS
ABERDEEN       LGT SNOW  27  22  81 N13       29.81F WCI  16
WATERTOWN      CLOUDY    29  25  85 NE13      29.74S WCI  19
BROOKINGS      CLOUDY    28  27  96 NE14      29.71F FOG     WCI  17
SISSETON         N/A     31  28  89 NE13      29.80S WCI  21
$$

SDZ017-020-022-023-036>040-048>070-242200-
SOUTHEAST SOUTH DAKOTA

CITY           SKY/WX    TMP DP  RH WIND       PRES   REMARKS
SIOUX FALLS    CLOUDY    31  29  92 NE17      29.68F WCI  19
HURON          LGT SNOW  31  29  92 NE9       29.75F FOG     WCI  23
CHAMBERLAIN    LGT SNOW  32  31  98 NE13G18   29.70S WCI  22
MITCHELL       LGT SNOW  32  30  92 NE13      29.72F FOG     WCI  22
YANKTON          N/A     30  27  86 NE21G28   29.61F VSB 1/4 WCI  17
$$

ABBREVIATIONS USED IN REMARKS
   TC - TEMPERATURE IN CELSIUS
  WCI - WIND CHILL INDEX
   HX - HEAT INDEX
  VSB - VISIBILITY




USA.gov is the U.S. government's official web portal to all federal, state and local government web resources and services.